METOP-B 1 38771U 12049A 26255.26269997 .00000061 00000+0 47748-4 0 9992 2 38771 98.6421 304.9895 0003457 95.3514 264.8058 14.21458567725631 SARAL 1 39086U 13009A 26255.25721429 .00000033 00000+0 28191-4 0 9991 2 39086 98.5565 80.7360 0002687 53.3725 306.7706 14.32906767708074 METOP-C 1 43689U 18087A 26255.20772339 .00000062 00000+0 48077-4 0 9994 2 43689 98.6958 313.2167 0000547 53.1367 306.9861 14.21509908407194 OTB-3-GAZELLE 1 54023U 22127A 26255.23938993 .00000071 00000+0 34279-4 0 9990 2 54023 98.4031 245.6534 0011942 288.3738 71.6153 14.42700544206918 EOS-6 (OCEANSAT-3) 1 54361U 22158A 26255.29056779 .00000180 00000+0 61505-4 0 9991 2 54361 98.3552 352.3312 0002335 92.9973 267.1487 14.46977376200432 KINEIS-1B 1 60079U 24114A 26255.29427421 .00000510 00000+0 73105-4 0 9990 2 60079 97.9811 279.0619 0003040 145.3543 214.7868 14.80742598120293 KINEIS-1C 1 60081U 24114C 26255.26037286 .00000499 00000+0 71637-4 0 9990 2 60081 97.9829 278.8965 0000505 108.3486 251.7781 14.80740571120265 KINEIS-1D 1 60082U 24114D 26255.33744830 .00000390 00000+0 63469-4 0 9993 2 60082 97.9875 274.5280 0000111 53.2853 306.8366 14.76419649119981 KINEIS-1E 1 60083U 24114E 26255.34468145 .00000462 00000+0 66636-4 0 9996 2 60083 97.8937 277.3959 0001208 306.3008 53.8092 14.80768106120286 KINEIS-1A 1 60084U 24114F 26255.31138072 .00000467 00000+0 67390-4 0 9990 2 60084 97.8909 277.4358 0003421 197.7825 162.3268 14.80730364120284 KINEIS-3C 1 61220U 24172A 26255.19909920 .00001201 00000+0 19785-3 0 9992 2 61220 98.0412 344.1657 0001062 167.7345 192.3888 14.72313063105879 KINEIS-3D 1 61221U 24172B 26255.19247088 .00001194 00000+0 19676-3 0 9993 2 61221 98.0411 344.1687 0001069 158.3764 201.7489 14.72302542106154 KINEIS-3E 1 61222U 24172C 26255.24295933 .00001182 00000+0 19463-3 0 9993 2 61222 98.0406 344.1966 0001189 120.7558 239.3766 14.72367280106162 KINEIS-3A 1 61223U 24172D 26255.22669203 .00001179 00000+0 19431-3 0 9998 2 61223 98.0404 344.2761 0002639 143.8082 216.3304 14.72320037105581 KINEIS-3B 1 61224U 24172E 26255.20956167 .00001188 00000+0 19579-3 0 9998 2 61224 98.0398 344.2768 0002903 129.7536 230.3927 14.72318238106153 KINEIS-5C 1 62081U 24219A 26255.25426433 .00000416 00000+0 73434-4 0 9999 2 62081 97.9144 51.7418 0004330 22.7805 337.3594 14.72312792096561 KINEIS-5D 1 62082U 24219B 26255.27208632 .00000601 00000+0 10213-3 0 9992 2 62082 97.9260 51.9284 0004920 10.3583 349.7726 14.72578799096571 KINEIS-5E 1 62083U 24219C 26255.29942176 .00000377 00000+0 67396-4 0 9998 2 62083 97.9103 51.8470 0006150 0.2813 359.8398 14.72285729096581 KINEIS-5A 1 62084U 24219D 26255.27578183 -.00001860 00000+0 28686-3 0 9997 2 62084 97.9041 52.0659 0005154 42.5910 317.5697 14.72288685096582 KINEIS-5B 1 62085U 24219E 26255.28868792 .00000711 00000+0 10459-3 0 9999 2 62085 98.0162 58.6763 0002041 30.7324 329.4006 14.78483656096876 KINEIS-2C 1 62929U 25028B 26255.10736479 .00000954 00000+0 15454-3 0 9991 2 62929 98.1164 309.5718 0003628 13.8839 346.2468 14.73559344085419 KINEIS-2D 1 62930U 25028C 26255.10844794 .00000965 00000+0 14779-3 0 9994 2 62930 97.9207 305.8574 0001751 293.5768 66.5258 14.75903120085537 KINEIS-2E 1 62931U 25028D 26255.13610778 .00000829 00000+0 12411-3 0 9991 2 62931 97.8876 304.8938 0000999 109.0727 251.0591 14.77205355085618 KINEIS-2A 1 62932U 25028E 26255.15229354 .00000821 00000+0 13409-3 0 9990 2 62932 98.1222 310.6659 0003361 239.3814 120.7063 14.73562525085418 KINEIS-2B 1 62934U 25028G 26255.12978574 .00000847 00000+0 13774-3 0 9997 2 62934 97.9589 306.3886 0002618 211.7612 148.3439 14.73565068085464 KINEIS-4E 1 63300U 25056A 26255.30745160 .00001040 00000+0 17215-3 0 9999 2 63300 97.9134 16.8337 0000926 183.9228 176.1973 14.72301988079941 KINEIS-4C 1 63301U 25056B 26255.32022824 .00001065 00000+0 17606-3 0 9998 2 63301 97.9188 17.1330 0004536 58.8175 301.3477 14.72326686079954 KINEIS-4D 1 63302U 25056C 26255.32477247 .00001058 00000+0 17483-3 0 9997 2 63302 97.9109 17.0502 0003653 72.5168 287.6439 14.72346691079954 KINEIS-4A 1 63303U 25056D 26255.29070744 .00001010 00000+0 16761-3 0 9991 2 63303 97.9204 17.0398 0002146 47.3693 312.7695 14.72279387079943 KINEIS-4B 1 63304U 25056E 26255.34136852 .00001013 00000+0 16778-3 0 9992 2 63304 97.9216 17.1550 0005950 31.8693 328.2874 14.72349103079947